Nuuk, Greenland

6:43 AM -02 on June 27, 2017 (GMT -0200)
Nuuk

Weather History for BGGH - January, 2014

Change the Weather History Date:

Wednesday, January 15, 2014

  Actual Average Record
Temperature  
Mean Temperature 28 °F -  
Max Temperature 33 °F 24 °F 39 °F (2012)
Min Temperature 24 °F 14 °F 5 °F (1999)
Degree Days  
Heating Degree Days 36    
Moisture  
Dew Point 22 °F    
Average Humidity 71    
Maximum Humidity 95    
Minimum Humidity 45    
Precipitation  
Precipitation 0.47 in 0.06 in - ()
Sea Level Pressure  
Sea Level Pressure 29.37 in    
Wind  
Wind Speed 17 mph ()    
Max Wind Speed 47 mph    
Max Gust Speed 61 mph    
Visibility 4.8 miles    
Events Snow    
Averages and records for this station are not official NWS values.
T = Trace of Precipitation, MM = Missing Value Source: Averaged Metar Reports

Daily Weather History Graph

Daily Weather History Graph

Search for Another Location

Airport or City:

Trip Planner

Search our weather history database for the weather conditions in past years. The results will help you decide how hot, cold, wet, or windy it might be!

Date:

Astronomy

Jan. 15, 2014 Rise Set
Actual Time 9:54 AM -03 3:19 PM -03
Civil Twilight 8:46 AM -03 4:26 PM -03
Nautical Twilight 7:42 AM -03 5:30 PM -03
Astronomical Twilight 6:44 AM -03 6:28 PM -03
Moon 3:38 PM -03 (1/15) 8:42 AM -03 (1/15)
Length of Visible Light 7h 39m
Length of Day
5h 24m
Full, 100% of the Moon is Illuminated
Jan 15
Full
Jan 16
Full
Jan 24
Last Quarter
Jan 30
New
Feb 6
First Quarter

Hourly Weather History & Observations

Time (-03) Temp. Windchill Dew Point Humidity Pressure Visibility Wind Dir Wind Speed Gust Speed Precip Events Conditions
12:00 AM 26 °F - 16 °F 53% 29.69 in 31 mi SE 11.5 mph - -   Scattered Clouds
12:20 AM 26.6 °F 20.0 °F 14.0 °F 59% 29.68 in 6.2 mi East 5.8 mph - N/A   Mostly Cloudy
12:50 AM 24.8 °F 15.3 °F 14.0 °F 64% 29.68 in 6.2 mi East 9.2 mph - N/A   Mostly Cloudy
1:00 AM 26 °F - 15 °F 49% 29.68 in 31 mi ESE 4.6 mph - -   Scattered Clouds
1:20 AM 26.6 °F 21.2 °F 12.2 °F 55% 29.68 in 6.2 mi East 4.6 mph - N/A   Mostly Cloudy
1:50 AM 26.6 °F 17.5 °F 12.2 °F 55% 29.65 in 6.2 mi East 9.2 mph - N/A Snow Light Snow Showers
2:00 AM 26 °F - 13 °F 45% 29.63 in 31 mi East 4.6 mph - -   Overcast
2:20 AM 26.6 °F 20.0 °F 14.0 °F 59% 29.65 in 6.2 mi Variable 5.8 mph 17.3 mph N/A Snow Light Snow Showers
2:50 AM 28.4 °F 19.1 °F 14.0 °F 55% 29.62 in 6.2 mi SE 10.4 mph 24.2 mph N/A Snow Light Snow Showers
3:00 AM 27 °F - 15 °F 49% 29.61 in 31 mi SE 18.4 mph - -   Scattered Clouds
3:20 AM 26.6 °F 21.2 °F 14.0 °F 59% 29.62 in 6.2 mi Variable 4.6 mph - N/A   Mostly Cloudy
3:50 AM 26.6 °F 16.2 °F 15.8 °F 64% 29.59 in 6.2 mi South 11.5 mph - N/A Snow Light Snow
4:00 AM 27 °F - 16 °F 52% 29.58 in 31 mi SE 17.3 mph - - Snow Light Snow Showers
4:20 AM 26.6 °F 15.7 °F 15.8 °F 64% 29.59 in 5.0 mi ESE 12.7 mph 25.3 mph N/A Snow Light Snow Showers
4:50 AM 26.6 °F 17.5 °F 14.0 °F 59% 29.56 in 6.2 mi East 9.2 mph - N/A Snow Light Snow Showers
5:00 AM 27 °F - 17 °F 53% 29.56 in 31 mi East 9.2 mph - - Snow Snow
5:20 AM 26.6 °F 17.5 °F 14.0 °F 59% 29.56 in 6.2 mi East 9.2 mph - N/A   Overcast
5:50 AM 28.4 °F 18.0 °F 15.8 °F 59% 29.53 in 5.6 mi ESE 12.7 mph - N/A Snow Light Snow Showers
6:00 AM 27 °F - 17 °F 55% 29.53 in 18 mi SE 9.2 mph - -   Clear
6:50 AM 28.4 °F 15.8 °F 17.6 °F 64% 29.50 in 2.5 mi East 18.4 mph - N/A Snow Snow
7:00 AM 28 °F - 19 °F 57% 29.49 in 11 mi East 6.9 mph - - Snow Light Snow Showers
7:50 AM 26.6 °F 13.4 °F 19.4 °F 74% 29.44 in 3.1 mi East 18.4 mph - N/A Snow Light Snow
8:00 AM 28 °F - 19 °F 57% 29.44 in 11 mi ENE 11.5 mph - - Snow Light Snow Showers
8:50 AM 28.4 °F 15.1 °F 19.4 °F 69% 29.42 in 2.5 mi East 20.7 mph 32.2 mph N/A Snow Snow
9:00 AM 29 °F - 20 °F 59% 29.39 in 14 mi ESE 10.4 mph - - Snow Light Snow
9:20 AM 30.2 °F 16.8 °F 19.4 °F 64% 29.39 in 3.7 mi East 23.0 mph 35.7 mph N/A Snow Light Snow
9:50 AM 28.4 °F 15.1 °F 21.2 °F 74% 29.36 in 3.1 mi East 20.7 mph - N/A Snow Light Snow
10:00 AM 29 °F - 22 °F 68% 29.35 in 5 mi ESE 9.2 mph - - Snow Snow Grains
10:50 AM 32.0 °F 19.5 °F 21.2 °F 64% 29.33 in 5.0 mi East 21.9 mph - N/A Snow Light Snow
11:00 AM 30 °F - 21 °F 57% 29.32 in 16 mi East 11.5 mph - - Snow Light Snow Showers
11:50 AM 32.0 °F 21.2 °F 21.2 °F 64% 29.30 in 1.9 mi ESE 16.1 mph - N/A Snow Light Snow Showers
12:00 PM 31 °F - 24 °F 64% 29.28 in 3 mi SE 15.0 mph - - Snow Light Snow Showers
12:50 PM 32.0 °F 21.6 °F 23.0 °F 69% 29.27 in 1.6 mi ESE 15.0 mph 32.2 mph N/A Snow Light Snow Showers
1:00 PM 32 °F - 25 °F 65% 29.23 in 1 mi ESE 20.7 mph - - Snow Light Snow
1:50 PM 32.0 °F 18.9 °F 24.8 °F 75% 29.24 in 0.9 mi SE 24.2 mph 43.7 mph N/A Snow Snow
2:00 PM 32 °F - 25 °F 68% 29.19 in 1 mi SE 32.2 mph - - Snow Light Snow
2:50 PM 32.0 °F 15.8 °F 26.6 °F 80% 29.18 in 0.9 mi SE 40.3 mph 61.0 mph N/A Snow Light Snow
3:00 PM 31 °F - 28 °F 83% 29.18 in 1 mi SSE 34.5 mph - - Snow Light Snow
3:50 PM 32.0 °F 15.1 °F 26.6 °F 80% 29.18 in 0.6 mi SSE 44.9 mph 56.4 mph N/A Snow Snow
4:00 PM 30 °F - 29 °F 93% 29.17 in 1 mi SSE 32.2 mph - - Snow Light Snow
4:50 PM 30.2 °F 13.7 °F 28.4 °F 93% 29.21 in 0.4 mi SSE 38.0 mph - N/A Snow Snow
5:00 PM 30 °F - 29 °F 95% 29.19 in 0 mi SSE 29.9 mph - - Snow Light Snow
5:20 PM 32.0 °F 16.7 °F 28.4 °F 87% 29.21 in 0.3 mi SSE 34.5 mph - N/A Snow Snow
5:50 PM 30.2 °F 12.9 °F 28.4 °F 93% 29.18 in 0.2 mi SSE 42.6 mph 55.2 mph N/A Snow Heavy Snow
6:00 PM 31 °F - 29 °F 90% 29.18 in - SSE 35.7 mph - -   Partly Cloudy
6:20 PM 32.0 °F 14.8 °F 26.6 °F 80% 29.21 in - SSE 47.2 mph - N/A   Mostly Cloudy
6:50 PM 30.2 °F 12.7 °F 28.4 °F 93% 29.18 in - SSE 43.7 mph - N/A   Mostly Cloudy
7:00 PM 31 °F - 28 °F 86% 29.18 in - SSE 39.1 mph - -   Scattered Clouds
7:20 PM 32.0 °F 15.2 °F 26.6 °F 80% 29.21 in - SSE 43.7 mph 55.2 mph N/A   Mostly Cloudy
7:50 PM 32.0 °F 15.1 °F 26.6 °F 80% 29.21 in - SSE 44.9 mph 58.7 mph N/A   Mostly Cloudy
8:00 PM 31 °F - 27 °F 81% 29.19 in - SSE 40.3 mph - -   Scattered Clouds
8:20 PM 32.0 °F 16.0 °F 26.6 °F 80% 29.21 in - SSE 39.1 mph - N/A   Mostly Cloudy
8:50 PM 32.0 °F 15.8 °F 26.6 °F 80% 29.21 in - SSE 40.3 mph - N/A   Mostly Cloudy
9:00 PM 31 °F - 27 °F 81% 29.20 in - SSE 32.2 mph - -   Overcast
9:20 PM 32.0 °F 15.4 °F 26.6 °F 80% 29.21 in - SSE 42.6 mph - N/A   Mostly Cloudy
9:50 PM 32.0 °F 15.2 °F 26.6 °F 80% 29.21 in - SSE 43.7 mph - N/A   Mostly Cloudy
10:00 PM 30 °F - 28 °F 90% 29.21 in - SSE 36.8 mph - -   Overcast
10:20 PM 30.2 °F 13.1 °F 28.4 °F 93% 29.21 in - SSE 41.4 mph 52.9 mph N/A   Mostly Cloudy
10:50 PM 30.2 °F 13.3 °F 26.6 °F 86% 29.21 in - SSE 40.3 mph - N/A   Overcast
11:00 PM 30 °F - 28 °F 90% 29.23 in - SSE 31.1 mph - -   Unknown
11:20 PM 32.0 °F 15.8 °F 26.6 °F 80% 29.24 in - SSE 40.3 mph 51.8 mph N/A   Mostly Cloudy
11:50 PM 30.2 °F 13.5 °F 28.4 °F 93% 29.24 in - SSE 39.1 mph - N/A   Mostly Cloudy